Regional Weather Roundup
Issued by NWS

Home | Current Version | Previous Version | Graphics & Text | Print | Product List | Glossary On
Versions: 1 2 3 4 5 6 7 8 9 10 11 12 13 14 15 16 17 18 19 20 21 22 23 24 25 26 27 28 29 30 31 32 33 34 35 36 37 38 39 40 41 42 43 44 45 46 47 48 49 50
000
ASUS43 KTOP 161608
RWRKS

WEATHER ROUNDUP FOR KANSAS
NATIONAL WEATHER SERVICE GOODLAND KS
1100 AM CDT WED APR 16 2014

NOTE:  "FAIR" INDICATES FEW OR NO CLOUDS BELOW 12,000 FEET WITH NO
SIGNIFICANT WEATHER AND/OR OBSTRUCTIONS TO VISIBILITY.

KSZ001>006-013>018-027>032-041>047-161700-
NORTHWEST KANSAS

CITY           SKY/WX    TMP DP  RH WIND       PRES   REMARKS
GOODLAND       MOSUNNY   53  31  42 N35G48    29.82R
HAYS           SUNNY     63  34  34 NW18      29.75R
HILL CITY      MOSUNNY   60  37  42 NW24G36   29.76R
RUSSELL        SUNNY     60  23  24 SW17G24   29.73R
$$

KSZ061>065-074>080-084>089-161700-
SOUTHWEST KANSAS

CITY           SKY/WX    TMP DP  RH WIND       PRES   REMARKS
DODGE CITY     MOSUNNY   62  31  31 N16       29.81R
ELKHART          N/A     57  29  34 N15         N/A
GARDEN CITY    SUNNY     61  30  31 N22G31    29.82R
GREAT BEND     MOSUNNY   61  25  25 SW18G24   29.76S
LIBERAL        MOSUNNY   61  30  31 N22G28    29.85R
PRATT          PTSUNNY   55  23  28 S24G31    29.82R
$$

KSZ066>073-081>083-090>101-161700-
SOUTHEAST KANSAS

CITY           SKY/WX    TMP DP  RH WIND       PRES   REMARKS
CHANUTE        SUNNY     56  31  38 S31G41    29.99R
COFFEYVILLE    MOSUNNY   56  32  40 S26G37    30.01F
HUTCHINSON     MOSUNNY   61  25  25 SW29G43   29.82R
MEDICINE LODGE   N/A     60  23  24 SW21G31   29.83R
NEWTON         MOSUNNY   59  27  29 S35G44    29.85S
PARSONS        SUNNY     57  29  34 S26G40    30.01S
WICHITA INTL   PTSUNNY   60  27  28 S35G41    29.84S
WICHITA JABRA  SUNNY     59  28  30 S35G44    29.85R
WICHITA MCCONL SUNNY     58  26  28 S33G47    29.86S
WINFIELD       SUNNY     59  29  31 S29G47    29.92R
$$

KSZ007>012-019>026-033>040-048>060-102>105-161700-
NORTHEAST KANSAS

CITY           SKY/WX    TMP DP  RH WIND       PRES   REMARKS
CONCORDIA      MOSUNNY   59  24  26 S28G41    29.73S
EMPORIA        PTSUNNY   57  27  31 S32G47    29.88R
LAWRENCE       MOSUNNY   58  30  34 S22G37    29.93R
MANHATTAN      PTSUNNY   62  27  26 S29G46    29.77F
OLATHE IND     SUNNY     55  30  38 S28G37    29.96R
OLATHE EXE     SUNNY     54  30  40 S21G37    29.96R
SALINA         MOSUNNY   60  26  27 S31G44    29.78R
TOPEKA BILLARD PTSUNNY   57  29  34 S24G32    29.90S
TOPEKA FORBES  PTSUNNY   56  29  35 S24G37    29.88R
$$



USA.gov is the U.S. government's official web portal to all federal, state and local government web resources and services.